This demonstration page uses our WeatherBlox Daily Observations layout. Learn more.

Left ArrowRight Arrow

Hourly Observations for December 28, 2015

Temp ( °F °C ) Dew Point ( °F °C ) Humidity (%) Winds ( mph kmh ) Pressure ( in mb ) Visibility ( mi km ) Precip ( " mm )
12:53 am 00:53 Cloudy 39 3.9 35 1.7 86 86 Calm 30.12 1020 10 16 0.00 0.00
1:53 am 01:53 Cloudy 39 3.9 35 1.7 86 86 Calm 30.12 1020 10 16 0.00 0.00
2:53 am 02:53 Cloudy 38 3.3 34 1.1 86 86 Calm 30.12 1020 10 16 0.00 0.00
3:53 am 03:53 Cloudy 39 3.9 35 1.7 86 86 Calm 30.11 1020 10 16 0.00 0.00
4:53 am 04:53 Cloudy 38 3.3 34 1.1 86 86 Calm 30.09 1019 10 16 0.00 0.00
5:53 am 05:53 Clear 35 1.7 30 -1.1 82 82 Calm 30.09 1019 9 14 0.00 0.00
6:18 am 06:18 Mostly Clear with Mist and Fog 34 1 30 -1 87 87 Calm 30.09 1019 2 3 0.00 0.00
6:24 am 06:24 Partly Cloudy with Mist and Fog 34 1 30 -1 87 87 Calm 30.09 1019 1 1 0.00 0.00
6:31 am 06:31 Mostly Cloudy with Fog 34 1.1 30 -1.1 85 85 Calm 30.09 1019 1 1 0.00 0.00
6:40 am 06:40 Partly Cloudy with Mist and Fog 34 1 30 -1 87 87 Calm 30.09 1019 2 2 0.00 0.00
6:53 am 06:53 Partly Cloudy with Mist and Fog 33 0.6 29 -1.7 85 85 Calm 30.09 1019 3 5 0.00 0.00
6:55 am 06:55 Partly Cloudy with Mist and Fog 33 0.6 29 -1.7 85 85 Calm 30.09 1019 2 2 0.00 0.00
7:21 am 07:21 Mostly Clear with Mist and Fog 33 0.6 30 -1.1 89 89 Calm 30.09 1019 6 10 0.00 0.00
7:53 am 07:53 Sunny 32 0 29 -1.7 88 88 Calm 30.09 1019 10 16 0.00 0.00
8:32 am 08:32 Sunny with Mist and Fog 36 2 32 0 87 87 W 3 6 30.09 1019 2 2 0.00 0.00
8:34 am 08:34 Mostly Cloudy with Mist and Fog 36 2 30 -1 81 81 W 3 6 30.09 1019 1 1 0.00 0.00
8:53 am 08:53 Sunny with Mist and Fog 36 2.2 33 0.6 89 89 WNW 5 7 30.09 1019 5 8 0.00 0.00
9:53 am 09:53 Sunny 43 6.1 36 2.2 76 76 N 5 7 30.08 1019 10 16 0.00 0.00
10:53 am 10:53 Sunny 46 7.8 35 1.7 66 66 N 5 7 30.07 1018 10 16 0.00 0.00
11:53 am 11:53 Sunny 49 9.4 32 0 52 52 Calm 30.04 1017 10 16 0.00 0.00
12:53 pm 12:53 Sunny 51 10.6 32 0 48 48 NE 5 7 30.02 1017 10 16 0.00 0.00
1:53 pm 13:53 Sunny 52 11.1 31 -0.6 45 45 Calm 30.00 1016 10 16 0.00 0.00
2:53 pm 14:53 Sunny 52 11.1 32 0 47 47 SW 3 6 29.98 1015 10 16 0.00 0.00
3:53 pm 15:53 Sunny 52 11.1 33 0.6 49 49 Calm 29.98 1015 10 16 0.00 0.00
4:53 pm 16:53 Clear 49 9.4 34 1.1 56 56 W 5 7 29.99 1016 10 16 0.00 0.00
5:53 pm 17:53 Clear 48 8.9 32 0 54 54 NNW 3 6 30.00 1016 10 16 0.00 0.00
6:53 pm 18:53 Clear 46 7.8 32 0 58 58 NW 8 13 30.02 1017 10 16 0.00 0.00
7:53 pm 19:53 Clear 42 5.6 32 0 68 68 N 6 9 30.06 1018 10 16 0.00 0.00
8:53 pm 20:53 Clear 41 5 30 -1.1 65 65 N 6 9 30.06 1018 10 16 0.00 0.00
9:53 pm 21:53 Clear 39 3.9 29 -1.7 67 67 NNW 6 9 30.06 1018 10 16 0.00 0.00
10:53 pm 22:53 Clear 43 6.1 28 -2.2 56 56 NNW 7 11 30.07 1018 10 16 0.00 0.00
11:53 pm 23:53 Clear 44 6.7 27 -2.8 51 51 NNW 9 15 30.07 1018 10 16 0.00 0.00

Powered by AerisWeather